Flag for Austria Weather past 2 weeks in Bruck an der Leitha, Lower Austria, Austria

Now
54 °F

Light rain. Low clouds.


Feels Like: N/A
Forecast: 56 / 69 °F
Wind: N/A

Location: Wien / Schwechat-Flughafen

Current Time: Sep 17, 2014 at 7:53:58 AM

Latest Report: Sep 17, 2014 at 7:00 AM


Visibility: 0 mi

Pressure: 30.08 "Hg

Humidity: 99%

Dew point: 54 °F

Location of Bruck an der LeithaLocation

Historic Weather in Bruck an der Leitha — Graph

°F

Bruck an der Leitha temperature yesterday

Maximum temperature yesterday: 67 °F (at 3:00 PM)
Minimum temperature yesterday: 54 °F (at 6:00 AM)
Average temperature yesterday: 61 °F

Past Weeks' High & Low Weather Summary

 TemperatureHumidityPressure
High77 °F (Sep 5, 5:00 PM)100% (Sep 8, 8:00 AM)30.11 "Hg (Sep 8, 8:00 AM)
Low54 °F (Sep 16, 6:00 AM)53% (Sep 5, 6:00 PM)29.80 "Hg (Sep 12, 5:00 AM)
Average62 °F86%30.00 "Hg
* Reported Sep 2 6:00 AM — Sep 17 6:00 AM, Bruck an der Leitha, Weather by CustomWeather, © 2014

Note: Actual official high and low records may vary slightly from our data, if they occured in-between our weather recording intervals... More about our weather records

Advertising

Bruck an der Leitha weather history for previous 24 hours

 ConditionsComfort  
Time TempWeatherWind HumidityBarometerVisibility
6:00 AM
Sep 17
56 °FPassing clouds.5 mph97%30.08 "Hg3 mi
5:00 AM56 °FPassing clouds.N/A98%30.08 "Hg2 mi
4:00 AM56 °FPassing clouds.N/A97%30.09 "Hg4 mi
3:00 AM57 °FPassing clouds.N/A98%30.09 "Hg2 mi
2:00 AM57 °FPassing clouds.N/A98%30.09 "Hg2 mi
1:00 AM58 °FPassing clouds.N/A94%30.09 "Hg4 mi
12:00 AM58 °FPassing clouds.N/A94%30.10 "Hg9 mi
11:00 PM
Sep 16
59 °FPassing clouds.N/A92%30.10 "Hg11 mi
10:00 PM60 °FPassing clouds.N/A92%30.10 "Hg11 mi
9:00 PM62 °FPassing clouds.N/A88%30.09 "Hg16 mi
8:00 PM63 °FPassing clouds.N/A90%30.09 "Hg14 mi
7:00 PM64 °FPartly sunny.N/A85%30.07 "Hg19 mi
6:00 PM66 °FOvercast.N/A74%30.07 "Hg25 mi
5:00 PM67 °FOvercast.N/A71%30.07 "Hg22 mi
4:00 PM67 °FOvercast.5 mph71%30.08 "Hg19 mi
3:00 PM67 °FOvercast.3 mph72%30.09 "Hg19 mi
2:00 PM65 °FOvercast.3 mph77%30.10 "Hg12 mi
1:00 PM65 °FOvercast.N/A81%30.11 "Hg9 mi
12:00 PM63 °FOvercast.N/A85%30.11 "Hg6 mi
11:00 AM61 °FRain. Overcast.N/A92%30.11 "Hg6 mi
10:00 AM59 °FRain. Overcast.N/A97%30.10 "Hg3 mi
9:00 AM58 °FRain. Low clouds.N/A99%30.09 "Hg2 mi
8:00 AM56 °FRain. Low clouds.N/A100%30.09 "Hg1 mi
7:00 AM55 °FLight rain. Low clouds.No wind100%30.08 "Hg0 mi
Weather by CustomWeather, © 2014

See weather overviewHow to use our weather pages